[Iaude] MPEC E09: 2024 DX1 [a=1.32,e=0.21,i=24.0,H=22.5]

mpec at cfa.harvard.edu mpec at cfa.harvard.edu
Sat Mar 2 03:47:39 EST 2024


M.P.E.C. 2024-E09                                 Issued 2024 March 2, 08:46 UT

     The Minor Planet Electronic Circulars contain information on unusual
         minor planets, routine data on comets and natural satellites,
         and occasional editorial announcements.  They are published
    on behalf of Division F of the International Astronomical Union by the
          Minor Planet Center, Smithsonian Astrophysical Observatory,
                          Cambridge, MA 02138, U.S.A.
			  
             Prepared using the Tamkin Foundation Computer Network

                              MPC at CFA.HARVARD.EDU
            URL https://www.minorplanetcenter.net/    ISSN 1523-6714

                                    2024 DX1                                    


Observations:
     K24D01X*1C2024 02 19.51112413 43 26.490+16 27 56.81         21.73GVEE009G96
     K24D01X 1C2024 02 19.51630613 43 26.814+16 28 20.96         20.78GVEE009G96
     K24D01X 1C2024 02 19.52148913 43 27.106+16 28 45.05         21.32GVEE009G96
     K24D01X 1C2024 02 19.52667813 43 27.476+16 29 08.48         22.01GVEE009G96
     K24D01X 1C2024 02 19.54301213 43 28.490+16 30 24.40               VEE009G96
     K24D01X 1C2024 02 19.54394813 43 28.520+16 30 28.00         21.25GVEE009G96
     K24D01X 1C2024 02 19.54488813 43 28.590+16 30 33.90         21.34GVEE009G96
     K24D01X 1C2024 02 19.54582513 43 28.670+16 30 38.10         21.26GVEE009G96
     K24D01X 1C2024 02 19.62645413 43 34.804+16 37 01.08         21.68GVEE009T12
     K24D01X 1C2024 02 19.62843413 43 34.950+16 37 09.90         22.22GVEE009T12
     K24D01X 1C2024 02 19.63024413 43 35.026+16 37 18.67         22.19GVEE009T12
     K24D01X KC2024 02 20.30420213 44 24.070+17 29 22.70         21.97GVEE009I52
     K24D01X KC2024 02 20.30884713 44 24.310+17 29 43.80         21.59GVEE009I52
     K24D01X KC2024 03 02.33679113 52 12.738+30 40 10.60         20.99GVEE009I52
     K24D01X KC2024 03 02.34143113 52 12.731+30 40 28.70         22.21GVEE009I52
     K24D01X KC2024 03 02.34607713 52 12.774+30 40 47.21         21.52GVEE009I52
     K24D01X KC2024 03 02.35072013 52 12.821+30 41 05.10         22.42GVEE009I52

Observer details:
G96 Mt. Lemmon Survey.  Observers T. Beuden, G. J. Leonard.  Measurers T.
    Beuden, V. F. Carvajal, D. Fay, J. B. Fazekas, D. C. Fuls, A. R. Gibbs, A.
    D. Grauer, H. Groeller, J. K. Hogan, R. A. Kowalski, S. M. Larson, G. J.
    Leonard, D. Rankin, R. L. Seaman, F. C. Shelly, K. W. Wierzchos.  1.5-m
    reflector + 10K CCD.
I52 Steward Observatory, Mt. Lemmon Station.  Observers R. A. Kowalski, T.
    Beuden.  Measurers E. C. Beshore, D. Fay, J. B. Fazekas, D. C. Fuls, A. R.
    Gibbs, A. D. Grauer, H. Groeller, J. K. Hogan, R. A. Kowalski, S. M.
    Larson, G. J. Leonard, D. Rankin, R. L. Seaman, F. C. Shelly, K. W.
    Wierzchos, T. Beuden, V. F. Carvajal.  1.0-m prime focus + CCD.
T12 University of Hawaii 88-inch telescope, Maunakea.  Observer Y.
    Ramanjooloo.  Measurers R. Weryk, Y. Ramanjooloo, J. Fairlamb, R.
    Wainscoat.  2.24-m f/10.1 reflector + CCD.

Orbital elements:
2024 DX1                                                 Earth MOID = 0.1450 AU
Epoch 2024 Mar. 31.0 TT = JDT 2460400.5                 MPC                     
M  78.33408              (2000.0)            P               Q                  
n   0.64658281     Peri.  301.25281     +0.01181631     -0.97323439             
a   1.3245040      Node   145.67724     +0.99849096     -0.00082608             
e   0.2091545      Incl.   24.01898     +0.05362996     +0.22981327             
P   1.52           H   22.50          G   0.15           U   8                  
Residuals in seconds of arc
240219 G96  0.2-  0.0     240219 G96  0.0   0.1+    240220 I52  0.5-  0.4-
240219 G96  0.1-  0.0     240219 G96  0.3+  0.0     240302 I52  0.3+  0.2-
240219 G96  0.5-  0.0     240219 T12  0.1-  0.2+    240302 I52  0.2-  0.1-
240219 G96  0.2+  0.7-    240219 T12  0.3+  0.2-    240302 I52  0.1-  0.3+
240219 G96  0.2+  0.6-    240219 T12  0.2-  0.1+    240302 I52  0.1+  0.1+
240219 G96  0.2-  1.4-    240220 I52  0.2+  0.2+

Ephemeris:
2024 DX1                 a,e,i = 1.32, 0.21, 24                  q = 1.0475
Date    TT    R. A. (2000) Decl.     Delta      r    Elong.  Phase     V
2024 02 01    13 09 50.0 -06 50 11   0.3150  1.1437   112.6    52.7    22.2
...
2024 02 16    13 38 47.5 +11 52 45   0.3004  1.1872   125.4    42.7    21.9
...
2024 02 24    13 48 04.1 +22 09 50   0.3094  1.2118   130.0    38.7    21.9
...
2024 03 01    13 51 46.1 +29 12 53   0.3239  1.2307   131.8    36.9    22.0
2024 03 02    13 52 06.0 +30 18 27   0.3269  1.2339   132.0    36.7    22.0
2024 03 03    13 52 21.0 +31 22 26   0.3301  1.2371   132.1    36.5    22.0
...
2024 03 09    13 52 08.0 +37 10 20   0.3523  1.2562   132.0    36.0    22.2
...
2024 03 17    13 47 35.1 +43 11 37   0.3892  1.2817   130.3    36.3    22.5
...
2024 04 01    13 30 20.9 +49 27 52   0.4740  1.3291   125.0    38.0    23.0

A. U. Tomatic                (C) Copyright 2024 MPC           M.P.E.C. 2024-E09





More information about the Iaude mailing list